User: anonymous   Login
Location: Unspecified
(0.0000°N, 0.0000°E)
Time: 04:16:31
(UTC+00:00)
Language:

Tiros 10 - Orbit

View from above orbital plane
View from above orbital plane
View from above satellite
View from above satellite

Ground track
Ground track

The orbit data is extracted from the following two-line orbital elements,

1 01430U 65051A   15141.56765258  .00000113  00000-0  47801-4 0  9990
2 01430 098.0760 325.2773 0057280 031.0950 329.3609 14.40061686614053
Epoch (UTC): 21 May 2015 13:37:25
Eccentricity: 0.0057280
inclination: 98.0760°
perigee height: 717 km
apogee height: 799 km
right ascension of ascending node: 325.2773°
argument of perigee: 31.0950°
revolutions per day: 14.40061686
mean anomaly at epoch: 329.3609°
orbit number at epoch: 61405

The dashed part of the orbit path shows where the satellite is in the earth's shadow,  

DLR